Location: Brahman Valley
(40.6513°N, 111.8855°W)
Time: 12:29:58
(UTC+00:00)

Courier 1B - All Passes

Search period start: 08 May 2021 00:00
Search period end: 18 May 2021 00:00
Orbit: 962 x 1209 km, 28.3° (Epoch: 07 May)

Date Brightness Start Highest point End Pass type
(mag) Time Alt. Az. Time Alt. Az. Time Alt. Az.
08 May - 12:08:42 10° SSW 12:14:27 23° SSE 12:20:12 10° ESE daylight
08 May - 14:01:08 10° SW 14:07:53 32° S 14:14:31 10° ESE daylight
08 May - 15:54:57 10° WSW 16:01:23 29° SSW 16:07:36 10° SE daylight
08 May - 17:50:28 10° WSW 17:54:34 15° SSW 17:58:34 10° S daylight
09 May - 11:15:42 10° SSW 11:20:46 19° SSE 11:25:53 10° ESE visible
09 May - 13:07:29 10° SW 13:14:07 31° S 13:20:44 10° ESE daylight
09 May - 15:00:59 10° WSW 15:07:39 31° S 15:14:09 10° SE daylight
09 May - 16:55:47 10° WSW 17:00:58 20° SSW 17:06:00 10° SSE daylight
10 May - 10:23:07 10° S 10:27:07 15° SSE 10:31:10 10° ESE visible
10 May - 12:13:57 10° SW 12:20:22 28° SSE 12:26:48 10° ESE daylight
10 May - 14:07:06 10° WSW 14:13:53 33° S 14:20:35 10° ESE daylight
10 May - 16:01:26 10° WSW 16:07:19 23° SSW 16:13:02 10° SSE daylight
11 May - 09:31:36 10° SSE 09:33:31 11° SSE 09:35:27 10° SE visible
11 May - 11:20:37 10° SW 11:26:38 25° SSE 11:32:45 10° ESE visible
11 May - 13:13:19 10° WSW 13:20:07 33° S 13:26:53 10° ESE daylight
11 May - 15:07:18 10° WSW 15:13:37 27° SSW 15:19:48 10° SE daylight
11 May - 17:03:28 10° SW 17:06:47 13° SSW 17:10:02 10° S daylight
12 May - 10:27:29 10° SSW 10:32:57 21° SSE 10:38:31 10° ESE visible
12 May - 12:19:39 10° SW 12:26:20 32° S 12:33:05 10° ESE daylight
12 May - 14:13:17 10° WSW 14:19:52 30° S 14:26:24 10° SE daylight
12 May - 16:08:27 10° WSW 16:13:10 17° SSW 16:17:48 10° SSE daylight
13 May - 09:34:41 10° SSW 09:39:18 17° SSE 09:44:02 10° ESE visible
13 May - 11:26:07 10° SW 11:32:34 30° S 11:39:10 10° ESE visible
13 May - 13:19:24 10° WSW 13:26:06 32° S 13:32:50 10° SE daylight
13 May - 15:13:58 10° WSW 15:19:31 21° SSW 15:24:59 10° SSE daylight
14 May - 08:42:26 10° S 08:45:43 13° SSE 08:49:03 10° SE visible
14 May - 10:32:44 10° SW 10:38:51 27° SSE 10:45:08 10° ESE visible
14 May - 12:25:38 10° WSW 12:32:20 33° S 12:39:08 10° ESE daylight
14 May - 14:19:45 10° WSW 14:25:48 25° SSW 14:31:51 10° SE daylight
14 May - 16:17:21 10° SW 16:18:57 11° SSW 16:20:33 10° SSW daylight
15 May - 09:39:32 10° SSW 09:45:10 24° SSE 09:50:59 10° ESE visible
15 May - 11:31:58 10° WSW 11:38:33 32° S 11:45:20 10° ESE visible
15 May - 13:25:43 10° WSW 13:32:05 28° SSW 13:38:28 10° SE daylight
15 May - 15:21:25 10° WSW 15:25:20 14° SSW 15:29:13 10° S daylight
16 May - 08:46:36 10° SSW 08:51:32 20° SSE 08:56:39 10° ESE visible
16 May - 10:38:26 10° SW 10:44:48 31° S 10:51:25 10° ESE visible
16 May - 12:31:51 10° WSW 12:38:20 30° S 12:44:56 10° SE daylight
16 May - 14:26:41 10° WSW 14:31:40 18° SSW 14:36:40 10° SSE daylight
17 May - 07:54:01 10° S 07:57:57 15° SSE 08:02:00 10° ESE visible
17 May - 09:45:02 10° SW 09:51:06 29° S 09:57:26 10° ESE visible
17 May - 11:38:05 10° WSW 11:44:33 32° S 11:51:15 10° SE visible
17 May - 13:32:23 10° WSW 13:37:59 22° SSW 13:43:39 10° SSE daylight
